Regional Weather Roundup
Issued by NWS Cleveland, OH

Home | Current Version | Previous Version | Graphics & Text | Print | Product List | Glossary On
Versions: 1 2 3 4 5 6 7 8 9 10 11 12 13 14 15 16 17 18 19 20 21 22 23 24 25 26 27 28 29 30 31 32 33 34 35 36 37 38 39 40 41 42 43 44 45 46 47 48 49 50
415
ASUS41 KCLE 041110
RWRCLE
OHIO REGIONAL WEATHER ROUNDUP
NATIONAL WEATHER SERVICE CLEVELAND, OH
700 AM EDT WED MAY 04 2016

NOTE: "FAIR" INDICATES FEW OR NO CLOUDS BELOW 12,000 FEET WITH NO
SIGNIFICANT WEATHER AND/OR OBSTRUCTIONS TO VISIBILITY.

OHZ001>008-015>018-024>027-034-035-043-044-041200-
   NORTHWEST OHIO

CITY           SKY/WX    TMP DP  RH WIND       PRES   REMARKS
DEFIANCE       MOCLDY    50  44  80 S8        29.63F
FINDLAY        CLOUDY    52  43  71 S9        29.65F
TOLEDO EXPRESS CLOUDY    50  44  80 S7        29.63F
TOLEDO EXEC    CLOUDY    51  44  77 SW8       29.65F
LIMA           CLOUDY    50  45  83 S9        29.66F
$$

OHZ009>014-019>023-028>033-038-089-041200-
   NORTHEAST OHIO

CITY           SKY/WX    TMP DP  RH WIND       PRES   REMARKS
CLE-HOPKINS    MOCLDY    45  41  86 S8        29.72S
CLE-LAKEFRONT  CLEAR     48  39  71 SE7       29.69S
CUY CO. ARPT   PTCLDY    45  39  81 S6        29.71
LORAIN-ELYRIA  MOCLDY    45  41  86 S5        29.69F
ASHTABULA      CLEAR     40  39  97 S3        29.72S
AKRON-CANTON   MOCLDY    46  40  79 S3        29.71S
WOOSTER        CLEAR     41  39  93 CALM      29.71S FOG
MANSFIELD      PTCLDY    44  43  96 S6        29.70S
YOUNGSTOWN     PTCLDY    37  35  92 SE5       29.71S
$$

OHZ042-051>053-060>062-070>072-077>081-041200-
  SOUTHWEST OHIO

CITY           SKY/WX    TMP DP  RH WIND       PRES   REMARKS
CINC-COVINGTON CLOUDY    48  46  93 SW6       29.73F
CINC-LUNKEN    CLOUDY    48  47  96 CALM      29.74F
HAMILTON       MOCLDY    48  46  93 CALM      29.73F
DAYTON         CLOUDY    48  45  89 SW10      29.70F
WRIGHT-PAT AFB CLOUDY    47  47 100 SE6       29.70F
DAYTON GENERAL CLOUDY    47  44  90 S3        29.71F
WILMINGTON     PTCLDY    46  44  93 S7        29.72F FOG
$$

OHZ036-037-039>041-045>050-054>059-063>069-073>076-082>088-041200-
  CENTRAL AND SOUTHEAST OHIO

CITY           SKY/WX    TMP DP  RH WIND       PRES   REMARKS
COLUMBUS       PTCLDY    45  45 100 SE3       29.72S FOG
OSU AIRPORT    CLEAR     47  45  93 S7        29.71F FOG
BOLTON FIELD   PTCLDY    46  46 100 SW6       29.72S
RICKENBACK AFB PTCLDY    46  45  97 S5        29.72F FOG
NEWARK         FOG       44  42  93 CALM      29.72S VSB 3/4
MARION         PTCLDY    45  43  93 S8        29.70S FOG
LANCASTER      CLEAR     46  44  93 S3        29.73S FOG
ZANESVILLE     PTCLDY    49  46  90 CALM      29.72F FOG
NEW PHILLY     PTCLDY    47  44  90 CALM      29.72F
$$




USA.gov is the U.S. government's official web portal to all federal, state and local government web resources and services.